Nassau, Bahamas

4:29 AM EST on December 18, 2017 (GMT -0500)
Nassau International

Weather History for MYNN - March, 2014

Change the Weather History Date:

Saturday, March 15, 2014

  Actual Average Record
Temperature  
Mean Temperature 72 °F -  
Max Temperature 80 °F 81 °F 87 °F (2008)
Min Temperature 65 °F 65 °F 60 °F (1998)
Cooling Degree Days 8    
Growing Degree Days 22 (Base 50)    
Moisture  
Dew Point 58 °F    
Average Humidity 60    
Maximum Humidity 78    
Minimum Humidity 39    
Precipitation  
Precipitation 0.00 in 0.06 in - ()
Sea Level Pressure  
Sea Level Pressure 30.12 in    
Wind  
Wind Speed 4 mph ()    
Max Wind Speed 10 mph    
Max Gust Speed -    
Visibility 6.8 miles    
Events      
Averages and records for this station are not official NWS values.
T = Trace of Precipitation, MM = Missing Value Source: Averaged Metar Reports

Daily Weather History Graph

Daily Weather History Graph

Search for Another Location

Airport or City:

Trip Planner

Search our weather history database for the weather conditions in past years. The results will help you decide how hot, cold, wet, or windy it might be!

Date:

Astronomy

Mar. 15, 2014 Rise Set
Actual Time 7:18 AM EDT 7:18 PM EDT
Civil Twilight 6:56 AM EDT 7:41 PM EDT
Nautical Twilight 6:29 AM EDT 8:08 PM EDT
Astronomical Twilight 6:03 AM EDT 8:34 PM EDT
Moon 6:37 PM EDT (3/15) 6:26 AM EDT (3/15)
Length of Visible Light 12h 45m
Length of Day
11h 59m
Waxing Gibbous, 99% of the Moon is Illuminated
Mar 15
Waxing Gibbous
Mar 16
Full
Mar 23
Last Quarter
Mar 30
New
Apr 7
First Quarter

Hourly Weather History & Observations

Time (EDT) Temp. Heat Index Dew Point Humidity Pressure Visibility Wind Dir Wind Speed Gust Speed Precip Events Conditions
12:00 AM 69.8 °F - 53.6 °F 56% 30.18 in 6.2 mi East 6.9 mph - N/A   Mostly Cloudy
1:00 AM 68.0 °F - 55.4 °F 64% 30.15 in 6.2 mi Variable 2.3 mph - N/A   Scattered Clouds
2:00 AM 66 °F - 59 °F 71% 30.15 in 9 mi Calm Calm - -   Mostly Cloudy
2:00 AM 66.2 °F - 59.0 °F 78% 30.15 in 6.2 mi Calm Calm - N/A   Mostly Cloudy
3:00 AM 68.0 °F - 57.2 °F 68% 30.13 in 6.2 mi East 3.5 mph - N/A   Mostly Cloudy
4:00 AM 68.0 °F - 57.2 °F 68% 30.10 in 6.2 mi East 5.8 mph - N/A   Mostly Cloudy
5:00 AM 68 °F - 59 °F 66% 30.12 in 9 mi 2.3 mph - -   Mostly Cloudy
5:00 AM 68.0 °F - 59.0 °F 73% 30.12 in 6.2 mi Variable 2.3 mph - N/A   Mostly Cloudy
6:00 AM 68.0 °F - 55.4 °F 64% 30.11 in 6.2 mi Calm Calm - N/A   Mostly Cloudy
7:00 AM 68.0 °F - 55.4 °F 64% 30.12 in 6.2 mi Calm Calm - N/A   Mostly Cloudy
8:00 AM 68 °F - 59 °F 64% 30.14 in 9 mi Calm Calm - -   Mostly Cloudy
8:00 AM 68.0 °F - 59.0 °F 73% 30.14 in 6.2 mi East 8.1 mph - N/A   Mostly Cloudy
9:00 AM 73.4 °F - 55.4 °F 53% 30.15 in 6.2 mi East 8.1 mph - N/A   Scattered Clouds
10:00 AM 73.4 °F - 57.2 °F 57% 30.15 in 6.2 mi East 9.2 mph - N/A   Partly Cloudy
11:00 AM 77.0 °F - 62.6 °F 61% 30.16 in 6.2 mi East 10.4 mph - N/A   Partly Cloudy
1:00 PM 75.2 °F - 55.4 °F 50% 30.14 in 6.2 mi East 9.2 mph - N/A   Partly Cloudy
1:56 PM 80.6 °F 81.5 °F 60.8 °F 51% 30.13 in 6.2 mi ESE 10.4 mph - N/A   Partly Cloudy
2:00 PM 80 °F - 61 °F 43% 30.13 in 9 mi ESE 10.4 mph - -   Scattered Clouds
3:00 PM 77.0 °F - 53.6 °F 44% 30.11 in 6.2 mi East 8.1 mph - N/A   Partly Cloudy
4:00 PM 77.0 °F - 50.0 °F 39% 30.08 in 6.2 mi ENE 8.1 mph - N/A   Partly Cloudy
5:00 PM 80.6 °F 81.1 °F 59.0 °F 48% 30.06 in 6.2 mi ESE 8.1 mph - N/A   Partly Cloudy
6:00 PM 77.0 °F - 51.8 °F 41% 30.07 in 6.2 mi SE 9.2 mph - N/A   Partly Cloudy
7:00 PM 73.4 °F - 55.4 °F 53% 30.08 in 6.2 mi SE 5.8 mph - N/A   Partly Cloudy
8:00 PM 73 °F - 62 °F 61% 30.10 in 9 mi East 3.5 mph - -   Scattered Clouds
8:00 PM 73.4 °F - 62.6 °F 69% 30.10 in 6.2 mi East 3.5 mph - N/A   Partly Cloudy
11:00 PM 69 °F - 63 °F 74% 30.11 in 9 mi East 2.3 mph - -   Clear
11:00 PM 69.8 °F - 62.6 °F 78% 30.11 in - East 2.3 mph - N/A   Clear